TimeMST,TemperatureF,Dew PointF,Humidity,Sea Level PressureIn,VisibilityMPH,Wind Direction,Wind SpeedMPH,Gust SpeedMPH,PrecipitationIn,Events,Conditions,WindDirDegrees,DateUTC
12:53 AM,55.9,30.0,37,29.88,10.0,South,5.8,-,N/A,,Clear,190,2013-03-07 07:53:00
1:53 AM,55.9,30.0,37,29.87,10.0,SE,3.5,-,N/A,,Clear,130,2013-03-07 08:53:00
2:53 AM,52.0,30.0,43,29.86,10.0,SE,8.1,-,N/A,,Clear,140,2013-03-07 09:53:00
3:53 AM,51.1,28.9,43,29.86,10.0,WSW,3.5,-,N/A,,Clear,240,2013-03-07 10:53:00
4:53 AM,53.1,28.9,40,29.87,10.0,SE,6.9,-,N/A,,Clear,130,2013-03-07 11:53:00
5:53 AM,53.1,28.0,38,29.88,10.0,SE,11.5,-,N/A,,Clear,140,2013-03-07 12:53:00
6:53 AM,52.0,28.0,40,29.91,10.0,Calm,Calm,-,N/A,,Clear,0,2013-03-07 13:53:00
7:53 AM,57.0,28.9,34,29.92,10.0,SSE,5.8,-,N/A,,Clear,160,2013-03-07 14:53:00
8:53 AM,62.1,28.9,29,29.92,10.0,ESE,4.6,-,N/A,,Clear,110,2013-03-07 15:53:00
9:53 AM,66.9,27.0,22,29.92,10.0,ESE,5.8,-,N/A,,Clear,120,2013-03-07 16:53:00
10:53 AM,70.0,26.1,19,29.91,10.0,SSE,5.8,-,N/A,,Clear,150,2013-03-07 17:53:00
11:53 AM,73.9,24.1,16,29.90,10.0,SE,10.4,-,N/A,,Clear,130,2013-03-07 18:53:00
12:53 PM,78.1,12.0,8,29.86,10.0,South,9.2,-,N/A,,Clear,190,2013-03-07 19:53:00
1:53 PM,79.0,12.0,8,29.83,10.0,SSW,17.3,21.9,N/A,,Clear,200,2013-03-07 20:53:00
2:53 PM,80.1,12.0,8,29.83,10.0,SW,17.3,28.8,N/A,,Clear,230,2013-03-07 21:53:00
3:53 PM,78.1,15.1,9,29.83,10.0,SW,12.7,24.2,N/A,,Clear,220,2013-03-07 22:53:00
4:53 PM,75.9,19.9,12,29.83,10.0,West,13.8,23.0,N/A,,Clear,260,2013-03-07 23:53:00
5:53 PM,73.9,19.0,13,29.84,10.0,WSW,17.3,23.0,N/A,,Clear,240,2013-03-08 00:53:00
6:53 PM,70.0,21.0,16,29.87,10.0,WSW,9.2,-,N/A,,Clear,240,2013-03-08 01:53:00
7:53 PM,68.0,21.9,17,29.86,10.0,SSW,5.8,-,N/A,,Clear,210,2013-03-08 02:53:00
8:53 PM,66.0,23.0,20,29.86,10.0,Variable,5.8,-,N/A,,Clear,0,2013-03-08 03:53:00
9:53 PM,63.0,25.0,24,29.86,10.0,South,3.5,-,N/A,,Overcast,190,2013-03-08 04:53:00
10:53 PM,63.0,25.0,24,29.86,10.0,Calm,Calm,-,N/A,,Overcast,0,2013-03-08 05:53:00
11:53 PM,62.1,27.0,26,29.85,10.0,SSW,4.6,-,N/A,,Mostly Cloudy,200,2013-03-08 06:53:00